N1IJV-10 Weather Reports


Display with metric or nautical units.
time (UTC)temp
F
wind
direction
speed
MPH
gust
MPH
rain 1hr
in
rain 24hr
in
rain mn
in
humidity
%
barometer
mb
20260831213527 85 99 1.0 6.0 0.00 0.18 0.18 73 1009.7
20260831213022 85 114 1.0 2.0 0.00 0.18 0.18 76 1009.8
20260831212518 85 121 0.0 2.0 0.07 0.18 0.18 76 1009.7
20260831212013 86 203 3.0 5.0 0.07 0.18 0.18 73 1009.5
20260831211508 87 200 3.0 6.0 0.00 0.17 0.17 70 1010.0
20260831211007 88 215 3.0 7.0 0.00 0.17 0.17 70 1009.8
20260831210503 88 122 1.0 3.0 0.00 0.17 0.17 71 1009.7
20260831205958 88 118 0.0 2.0 0.00 0.17 0.17 73 1010.0
20260831205453 88 121 1.0 2.0 0.00 0.17 0.17 73 1009.8
20260831204949 87 149 2.0 2.0 0.00 0.17 0.17 74 1010.2
20260831204448 88 135 1.0 2.0 0.00 0.17 0.17 73 1010.2
20260831203942 88 119 1.0 2.0 0.00 0.17 0.17 76 1010.1
20260831203436 87 140 1.0 3.0 0.00 0.17 0.17 74 1010.2
20260831202934 87 189 3.0 3.0 0.00 0.17 0.17 76 1010.5
20260831202430 85 103 2.0 3.0 0.00 0.17 0.17 76 1010.6
20260831201924 85 97 0.0 2.0 0.00 0.17 0.17 80 1010.6
20260831201422 86 82 1.0 1.0 0.00 0.17 0.17 78 1010.7
20260831200918 86 279 2.0 2.0 0.00 0.17 0.17 76 1010.5
20260831200413 89 260 2.0 2.0 0.00 0.17 0.17 71 1010.5
20260831195908 88 158 1.0 1.0 0.00 0.17 0.17 75 1010.2
20260831195404 85 118 0.0 0.0 0.00 0.17 0.17 76 1010.2
20260831194859 84 98 0.0 0.0 0.00 0.17 0.17 79 1010.3
20260831194354 84 99 0.0 1.0 0.00 0.17 0.17 81 1010.3
20260831193853 84 125 0.0 3.0 0.00 0.17 0.17 78 1010.2
20260831193349 86 159 1.0 3.0 0.00 0.17 0.17 72 1010.1
20260831192843 86 155 1.0 3.0 0.00 0.17 0.17 71 1010.3
20260831192338 86 150 1.0 3.0 0.00 0.17 0.17 69 1010.7
20260831191834 87 293 4.0 8.0 0.00 0.17 0.17 67 1010.7
20260831191331 89 184 1.0 9.0 0.00 0.17 0.17 64 1010.5
20260831190826 89 270 3.0 6.0 0.00 0.17 0.17 64 1010.6
20260831190326 89 170 2.0 5.0 0.00 0.17 0.17 65 1010.3
20260831185825 89 292 3.0 5.0 0.00 0.17 0.17 64 1010.4
20260831185321 89 283 5.0 7.0 0.00 0.17 0.17 65 1010.7
20260831184820 88 145 2.0 3.0 0.00 0.17 0.17 65 1010.4
20260831184316 88 196 5.0 8.0 0.00 0.17 0.17 65 1010.6
20260831183811 88 217 2.0 5.0 0.00 0.17 0.17 67 1010.4
20260831183310 87 270 4.0 8.0 0.00 0.17 0.17 66 1010.6
20260831182809 87 190 2.0 5.0 0.00 0.17 0.17 66 1010.6
20260831182305 87 108 0.0 8.0 0.00 0.17 0.17 66 1010.3
20260831181800 87 218 3.0 5.0 0.00 0.17 0.17 64 1010.7
20260831181254 86 275 5.0 7.0 0.00 0.17 0.17 67 1010.7
20260831180749 86 171 3.0 6.0 0.00 0.17 0.17 65 1010.6
20260831180244 86 152 4.0 6.0 0.00 0.17 0.17 65 1010.7
20260831175743 86 169 2.0 5.0 0.00 0.17 0.17 67 1010.6
20260831175240 85 182 3.0 7.0 0.00 0.17 0.17 69 1010.8
20260831174735 85 183 3.0 3.0 0.00 0.17 0.17 68 1011.0
20260831174231 84 210 1.0 6.0 0.00 0.17 0.17 68 1011.1
20260831173729 84 210 2.0 6.0 0.00 0.17 0.17 68 1011.0
20260831173224 84 281 5.0 7.0 0.00 0.17 0.17 68 1011.1
20260831172719 83 317 3.0 10.0 0.00 0.17 0.17 69 1011.1
20260831172214 83 219 2.0 5.0 0.00 0.17 0.17 70 1011.0
20260831171709 83 221 1.0 2.0 0.00 0.17 0.17 71 1011.1
20260831171207 82 218 1.0 7.0 0.00 0.17 0.17 72 1011.2
20260831170702 82 318 3.0 6.0 0.00 0.17 0.17 73 1011.1
20260831170159 81 235 2.0 3.0 0.00 0.17 0.17 75 1011.3
20260831165655 80 327 1.0 5.0 0.00 0.17 0.17 76 1011.4
20260831165151 79 237 1.0 7.0 0.00 0.17 0.17 78 1011.5
20260831164646 79 230 4.0 5.0 0.00 0.17 0.17 77 1011.6
20260831164143 79 232 2.0 3.0 0.00 0.17 0.17 79 1011.6
20260831163637 78 320 1.0 3.0 0.00 0.17 0.17 79 1011.7
20260831163133 78 233 3.0 5.0 0.00 0.17 0.17 81 1011.7
20260831162632 77 234 1.0 3.0 0.00 0.17 0.17 82 1012.1
20260831162130 77 316 1.0 2.0 0.00 0.17 0.17 84 1011.8
20260831161626 76 240 1.0 3.0 0.00 0.17 0.17 83 1011.7
20260831161122 76 324 2.0 3.0 0.00 0.17 0.17 85 1011.8
20260831160621 75 242 2.0 2.0 0.00 0.17 0.17 87 1012.1
20260831160116 74 236 3.0 5.0 0.00 0.17 0.17 88 1011.7
20260831155611 74 233 4.0 6.0 0.00 0.17 0.17 89 1011.9
20260831155107 73 322 3.0 5.0 0.00 0.17 0.17 91 1011.9
20260831154603 72 273 1.0 5.0 0.00 0.17 0.17 93 1012.1
20260831154102 71 242 1.0 2.0 0.00 0.17 0.17 95 1011.8
20260831153602 71 308 1.0 2.0 0.00 0.17 0.17 96 1012.2
20260831153059 71 259 1.0 2.0 0.00 0.17 0.17 96 1011.9
20260831152554 71 312 2.0 3.0 0.00 0.17 0.17 97 1012.3
20260831152049 71 303 0.0 0.0 0.00 0.17 0.17 98 1012.2
20260831151549 70 247 1.0 2.0 0.00 0.17 0.17 98 1012.1
20260831151049 70 298 0.0 1.0 0.00 0.17 0.17 98 1012.2
20260831150538 70 313 0.0 1.0 0.05 0.17 0.17 98 1012.3
20260831150035 70 318 1.0 1.0 0.00 0.16 0.16 98 1012.5
20260831145529 70 315 0.0 1.0 0.00 0.16 0.16 98 1012.2
20260831145025 70 310 0.0 0.0 0.00 0.16 0.16 98 1012.3
20260831144520 70 272 0.0 1.0 0.00 0.16 0.16 98 1012.3
20260831144015 70 305 0.0 1.0 0.00 0.16 0.16 98 1012.2
20260831143510 70 313 1.0 2.0 0.00 0.16 0.16 98 1012.1
20260831143005 70 321 1.0 1.0 0.14 0.16 0.16 98 1011.8
20260831142456 70 318 0.0 1.0 0.19 0.16 0.16 97 1011.7
20260831141950 70 237 2.0 2.0 0.05 0.14 0.14 98 1012.1
20260831141444 69 326 2.0 3.0 0.00 0.13 0.13 98 1012.3
20260831140939 69 267 0.0 1.0 0.00 0.13 0.13 98 1012.1
20260831140433 69 312 0.0 2.0 0.00 0.13 0.13 98 1012.2
20260831135932 69 310 0.0 2.0 0.00 0.13 0.13 99 1012.1
20260831135431 69 322 2.0 2.0 0.00 0.13 0.13 99 1012.2
20260831134926 69 320 1.0 2.0 0.00 0.13 0.13 99 1012.2
20260831134423 69 312 0.0 1.0 0.00 0.13 0.13 99 1012.2
20260831133923 69 315 0.0 0.0 0.07 0.13 0.13 99 1012.5
20260831133418 69 316 0.0 0.0 0.07 0.13 0.13 98 1012.3
20260831132918 69 312 0.0 1.0 0.00 0.12 0.12 98 1012.2
20260831132414 69 308 0.0 0.0 0.00 0.12 0.12 98 1012.4
20260831131913 69 247 1.0 1.0 0.00 0.12 0.12 97 1012.3
20260831131408 69 309 0.0 1.0 0.00 0.12 0.12 97 1012.1
20260831130904 69 310 0.0 1.0 0.00 0.12 0.12 97 1012.2
20260831130359 69 254 1.0 2.0 0.17 0.12 0.12 96 1012.1
20260831125858 69 313 1.0 1.0 0.40 0.12 0.12 97 1011.9
20260831125354 69 306 0.0 1.0 0.24 0.08 0.08 96 1012.5
20260831124848 70 306 0.0 1.0 0.07 0.05 0.05 95 1012.5
20260831124344 70 306 0.0 0.0 0.05 0.04 0.04 94 1012.2
20260831123839 71 309 0.0 0.0 0.19 0.04 0.04 92 1012.8
20260831123338 71 310 0.0 1.0 0.19 0.03 0.03 90 1012.6
20260831122833 72 310 1.0 1.0 0.00 0.00 0.00 87 1012.5
20260831122329 72 307 0.0 1.0 0.00 0.00 0.00 87 1012.3
20260831121829 73 248 0.0 1.0 0.00 0.00 0.00 85 1012.1
20260831121325 73 246 0.0 1.0 0.00 0.00 0.00 82 1011.5
20260831120820 73 247 0.0 1.0 0.00 0.00 0.00 82 1011.4
20260831120314 73 244 1.0 2.0 0.00 0.00 0.00 82 1011.4
20260831115810 73 248 0.0 2.0 0.00 0.00 0.00 82 1011.1
20260831115306 73 241 2.0 2.0 0.00 0.00 0.00 82 1011.1
20260831114804 73 242 1.0 5.0 0.00 0.00 0.00 83 1010.9
20260831114259 72 242 1.0 6.0 0.00 0.00 0.00 83 1011.0
20260831113754 73 246 2.0 5.0 0.00 0.00 0.00 83 1011.0
20260831113248 73 245 2.0 3.0 0.00 0.00 0.00 83 1010.9
20260831112748 73 242 2.0 3.0 0.00 0.00 0.00 82 1011.0
20260831112243 73 243 1.0 2.0 0.00 0.00 0.00 82 1010.8
20260831111739 73 243 3.0 3.0 0.00 0.00 0.00 81 1010.8
20260831111235 73 257 2.0 6.0 0.00 0.00 0.00 81 1010.5
20260831110731 73 265 1.0 2.0 0.00 0.00 0.00 81 1010.6
20260831110226 73 263 1.0 2.0 0.00 0.00 0.00 81 1010.8
20260831105724 73 276 1.0 1.0 0.00 0.00 0.00 81 1010.7
20260831105220 73 266 2.0 3.0 0.00 0.00 0.00 80 1010.8
20260831104715 73 241 1.0 3.0 0.00 0.00 0.00 80 1010.8
20260831104211 73 249 3.0 5.0 0.00 0.00 0.00 80 1011.0
20260831103711 73 272 2.0 3.0 0.00 0.00 0.00 80 1011.0
20260831103207 73 257 2.0 2.0 0.00 0.00 0.00 81 1010.8
20260831102706 73 269 0.0 2.0 0.00 0.00 0.00 81 1011.0
20260831102201 73 259 1.0 1.0 0.00 0.00 0.00 81 1011.1
20260831101656 73 268 2.0 2.0 0.00 0.00 0.00 80 1011.0
20260831101152 74 264 1.0 3.0 0.00 0.00 0.00 79 1010.9
20260831100648 74 249 2.0 3.0 0.00 0.00 0.00 79 1010.9
20260831100144 74 259 1.0 3.0 0.00 0.00 0.00 79 1010.8
20260831095642 74 255 1.0 3.0 0.00 0.00 0.00 79 1010.8
20260831095137 74 276 1.0 2.0 0.00 0.00 0.00 80 1010.7
20260831094632 74 260 1.0 2.0 0.00 0.00 0.00 80 1010.7
20260831094129 74 264 1.0 2.0 0.00 0.00 0.00 80 1010.6
20260831093624 74 245 3.0 5.0 0.00 0.00 0.00 80 1010.7
20260831093120 74 276 0.0 3.0 0.00 0.00 0.00 80 1010.8
20260831092616 74 285 0.0 1.0 0.00 0.00 0.00 80 1011.0
20260831092111 74 277 0.0 1.0 0.00 0.00 0.00 80 1011.2
20260831091611 74 280 1.0 5.0 0.00 0.00 0.00 80 1011.0
20260831091106 74 260 1.0 2.0 0.00 0.00 0.00 80 1010.8
20260831090602 74 270 2.0 3.0 0.00 0.00 0.00 80 1011.0
20260831090058 74 282 0.0 1.0 0.00 0.00 0.00 80 1010.8
20260831085553 74 268 1.0 2.0 0.00 0.00 0.00 81 1010.9
20260831085048 74 282 1.0 1.0 0.00 0.00 0.00 82 1011.0
20260831084544 74 270 1.0 2.0 0.00 0.00 0.00 82 1011.2
20260831084040 74 282 0.0 1.0 0.00 0.00 0.00 82 1011.0
20260831083536 74 258 0.0 2.0 0.00 0.00 0.00 82 1011.2
20260831083030 74 248 0.0 2.0 0.00 0.00 0.00 83 1011.0
20260831082530 74 249 1.0 2.0 0.00 0.00 0.00 82 1011.1
20260831082025 74 250 1.0 1.0 0.00 0.00 0.00 83 1010.9
20260831081521 74 247 1.0 1.0 0.00 0.00 0.00 82 1011.0
20260831081016 74 247 0.0 2.0 0.00 0.00 0.00 82 1010.9
20260831080510 74 250 1.0 3.0 0.00 0.00 0.00 82 1010.8
20260831080007 74 240 2.0 3.0 0.00 0.00 0.00 82 1010.9
20260831075501 74 242 0.0 2.0 0.00 0.00 0.00 83 1011.0
20260831074957 74 242 1.0 2.0 0.00 0.00 0.00 82 1011.0
20260831074451 75 248 3.0 5.0 0.00 0.00 0.00 82 1010.9
20260831073950 75 241 2.0 3.0 0.00 0.00 0.00 81 1011.0
20260831073445 75 241 2.0 5.0 0.00 0.00 0.00 81 1010.9
20260831072944 75 244 1.0 3.0 0.00 0.00 0.00 81 1011.0
20260831072440 75 243 1.0 1.0 0.00 0.00 0.00 81 1010.9
20260831071937 75 242 1.0 2.0 0.00 0.00 0.00 81 1011.2
20260831071435 75 242 2.0 2.0 0.00 0.00 0.00 82 1011.2
20260831070930 75 244 0.0 1.0 0.00 0.00 0.00 82 1011.1
20260831070430 75 285 1.0 2.0 0.00 0.00 0.00 82 1011.2
20260831065929 75 244 0.0 3.0 0.00 0.00 0.00 81 1011.1
20260831065427 75 263 1.0 3.0 0.00 0.00 0.00 82 1011.0
20260831064922 75 244 1.0 2.0 0.00 0.00 0.00 83 1011.2
20260831064417 75 242 1.0 3.0 0.00 0.00 0.00 83 1011.2
20260831063913 75 244 1.0 2.0 0.00 0.00 0.00 83 1011.4
20260831063408 75 239 3.0 3.0 0.00 0.00 0.00 84 1011.2
20260831062902 75 245 1.0 2.0 0.00 0.00 0.00 85 1011.2
20260831062358 75 245 1.0 2.0 0.00 0.00 0.00 85 1011.0
20260831061856 75 245 1.0 2.0 0.00 0.00 0.00 85 1010.9
20260831061355 75 244 1.0 3.0 0.00 0.00 0.00 85 1011.0
20260831060851 75 251 1.0 3.0 0.00 0.00 0.00 85 1011.1
20260831060346 75 240 1.0 6.0 0.00 0.00 0.00 84 1011.2
20260831055845 75 241 2.0 3.0 0.00 0.00 0.00 85 1011.1
20260831055341 75 244 1.0 2.0 0.00 0.00 0.00 85 1011.1
20260831054836 75 247 2.0 2.0 0.00 0.00 0.00 85 1011.1
20260831054331 75 242 1.0 3.0 0.00 0.00 0.00 85 1010.9
20260831053830 75 240 2.0 2.0 0.00 0.00 0.00 86 1011.0
20260831053329 75 239 3.0 3.0 0.00 0.00 0.00 87 1010.9
20260831052824 75 241 1.0 6.0 0.00 0.00 0.00 86 1011.0
20260831052323 75 227 4.0 6.0 0.00 0.00 0.00 87 1010.8
20260831051821 75 234 2.0 8.0 0.00 0.00 0.00 87 1010.9
20260831051320 75 260 3.0 6.0 0.00 0.00 0.00 88 1010.9
20260831050815 75 250 1.0 6.0 0.00 0.00 0.00 89 1010.9
20260831050314 75 280 2.0 3.0 0.00 0.00 0.00 89 1011.0
20260831045808 75 249 1.0 3.0 0.00 0.21 0.21 90 1011.0
20260831045306 75 263 1.0 3.0 0.00 0.21 0.21 91 1011.0
20260831044758 75 291 1.0 2.0 0.00 0.21 0.21 92 1011.2
20260831044252 74 228 3.0 3.0 0.00 0.21 0.21 93 1011.0
20260831043749 74 260 1.0 1.0 0.00 0.21 0.21 94 1011.2
20260831043243 74 293 1.0 5.0 0.00 0.21 0.21 94 1011.3
20260831042743 74 271 3.0 3.0 0.00 0.21 0.21 95 1011.3
20260831042238 74 294 1.0 3.0 0.00 0.21 0.21 96 1011.4
20260831041733 74 300 1.0 2.0 0.00 0.21 0.21 96 1011.5
20260831041232 74 301 0.0 1.0 0.00 0.21 0.21 96 1011.8
20260831040726 74 301 1.0 2.0 0.00 0.21 0.21 97 1011.7
20260831040226 74 306 1.0 2.0 0.00 0.21 0.21 97 1011.8
20260831035719 74 300 1.0 1.0 0.00 0.21 0.21 98 1011.6
20260831035219 73 292 1.0 1.0 0.00 0.21 0.21 98 1011.8
20260831034718 73 301 0.0 1.0 0.00 0.21 0.21 99 1011.7
20260831034214 73 300 0.0 1.0 0.00 0.21 0.21 99 1012.1
20260831033709 73 305 0.0 1.0 0.00 0.21 0.21 99 1011.9
20260831033208 73 308 0.0 2.0 0.00 0.21 0.21 99 1012.3
20260831032703 73 309 0.0 1.0 0.00 0.21 0.21 99 1012.3
20260831032154 73 305 0.0 0.0 0.00 0.21 0.21 99 1012.3
20260831031653 73 312 0.0 0.0 0.00 0.21 0.21 99 1012.5
20260831031147 73 313 0.0 0.0 0.00 0.21 0.21 99 1012.7
20260831030646 73 310 1.0 1.0 0.00 0.21 0.21 99 1012.6
20260831030145 73 309 0.0 0.0 0.00 0.21 0.21 99 1012.8
20260831025643 73 313 0.0 1.0 0.00 0.21 0.21 99 1012.5
20260831025138 74 313 0.0 0.0 0.07 0.21 0.21 99 1012.6
20260831024635 74 314 0.0 1.0 0.07 0.21 0.21 98 1012.8
20260831024133 74 313 0.0 1.0 0.05 0.20 0.20 97 1012.8
20260831023632 74 303 1.0 2.0 0.05 0.20 0.20 97 1012.5
20260831023126 74 307 0.0 1.0 0.00 0.19 0.19 98 1012.5
20260831022621 74 304 0.0 1.0 0.00 0.19 0.19 98 1012.7
20260831022116 74 311 0.0 1.0 0.00 0.19 0.19 98 1012.6
20260831021615 73 300 0.0 1.0 0.00 0.19 0.19 98 1012.6
20260831021111 73 310 0.0 0.0 0.00 0.19 0.19 98 1012.8
20260831020607 73 311 0.0 0.0 0.00 0.19 0.19 98 1012.7
20260831015557 74 312 0.0 0.0 0.00 0.19 0.19 97 1013.0
20260831015051 74 306 1.0 1.0 0.00 0.19 0.19 97 1012.7
20260831014546 74 310 0.0 1.0 0.00 0.19 0.19 97 1012.6
20260831014042 73 309 0.0 1.0 0.00 0.19 0.19 98 1012.4
20260831013537 73 307 0.0 0.0 0.00 0.19 0.19 98 1012.3
20260831013032 73 305 0.0 0.0 0.00 0.19 0.19 98 1012.6
20260831012527 73 311 0.0 0.0 0.00 0.19 0.19 98 1012.4
20260831012026 73 311 0.0 0.0 0.00 0.19 0.19 98 1012.4
20260831011521 73 310 0.0 0.0 0.00 0.19 0.19 98 1012.3
20260831011016 73 308 0.0 0.0 0.00 0.19 0.19 98 1012.2
20260831010511 73 310 0.0 0.0 0.00 0.19 0.19 98 1012.2
20260831010008 73 313 0.0 0.0 0.00 0.19 0.19 97 1012.3
20260831005502 74 310 0.0 0.0 0.00 0.19 0.19 97 1012.4
20260831005001 74 309 0.0 0.0 0.00 0.19 0.19 97 1011.9
20260831004458 74 310 0.0 0.0 0.00 0.19 0.19 96 1011.9
20260831003954 74 315 0.0 0.0 0.00 0.19 0.19 96 1011.8
20260831003450 74 307 0.0 1.0 0.00 0.19 0.19 96 1011.8
20260831002949 74 316 0.0 0.0 0.00 0.19 0.19 96 1011.8
20260831002448 74 318 0.0 0.0 0.00 0.19 0.19 96 1012.1
20260831001944 74 314 0.0 0.0 0.00 0.19 0.19 96 1011.7
20260831001439 74 315 0.0 0.0 0.00 0.19 0.19 96 1012.1
20260831000936 74 313 0.0 0.0 0.00 0.19 0.19 96 1012.1
20260831000432 74 317 0.0 0.0 0.00 0.19 0.19 96 1012.2
20260830235929 74 313 0.0 0.0 0.00 0.19 0.19 95 1012.4
20260830235425 74 311 0.0 0.0 0.00 0.19 0.19 95 1012.7
20260830234920 74 315 0.0 0.0 0.00 0.19 0.19 95 1012.4
20260830234415 74 316 0.0 1.0 0.00 0.19 0.19 95 1012.3
20260830233911 74 314 0.0 1.0 0.07 0.19 0.19 94 1012.4
20260830233406 74 317 0.0 2.0 0.00 0.18 0.18 94 1012.4
20260830232902 74 313 0.0 1.0 0.00 0.18 0.18 94 1012.8
20260830232357 74 310 0.0 1.0 0.00 0.18 0.18 94 1012.6
20260830231854 74 305 1.0 2.0 0.00 0.18 0.18 94 1012.5
20260830231349 74 303 1.0 2.0 0.00 0.18 0.18 94 1012.5
20260830230848 75 253 0.0 1.0 0.00 0.18 0.18 94 1012.2
20260830230344 75 246 1.0 1.0 0.00 0.18 0.18 94 1012.5
20260830225843 75 302 0.0 0.0 0.00 0.18 0.18 92 1012.6
20260830225338 75 302 0.0 0.0 0.00 0.18 0.18 91 1012.6
20260830224832 75 299 0.0 1.0 0.00 0.18 0.18 91 1012.8
20260830224327 76 248 1.0 2.0 0.05 0.18 0.18 90 1012.9
20260830223824 75 253 2.0 2.0 0.05 0.18 0.18 88 1013.1
20260830223320 75 250 2.0 3.0 0.00 0.17 0.17 87 1012.9
20260830222813 75 259 0.0 2.0 0.00 0.17 0.17 88 1013.0
20260830222309 75 255 2.0 2.0 0.00 0.17 0.17 88 1013.0
20260830221804 75 257 1.0 2.0 0.00 0.17 0.17 90 1012.8
20260830221301 75 262 2.0 2.0 0.00 0.17 0.17 90 1012.9
20260830220756 75 260 0.0 1.0 0.00 0.17 0.17 89 1013.0
20260830220255 75 301 4.0 6.0 0.00 0.17 0.17 90 1012.9
20260830215753 75 255 0.0 1.0 0.00 0.17 0.17 93 1012.8
20260830215248 75 265 0.0 0.0 0.00 0.17 0.17 91 1012.3
20260830214743 75 304 0.0 0.0 0.07 0.17 0.17 92 1012.6
20260830214243 75 261 0.0 0.0 0.00 0.16 0.16 91 1012.5
20260830213742 75 261 0.0 0.0 0.00 0.16 0.16 90 1012.6